Regional Weather Roundup
Issued by NWS

Home | Current Version | Previous Version | Graphics & Text | Print | Product List | Glossary Off
Versions: 1 2 3 4 5 6 7 8 9 10 11 12 13 14 15 16 17 18 19 20 21 22 23 24 25 26 27 28 29 30 31 32 33 34 35 36 37 38 39 40 41 42 43 44 45 46 47 48 49

000
ASUS43 KDMX 280407
RWRIA

WEATHER ROUNDUP FOR IOWA
NATIONAL WEATHER SERVICE DES MOINES IA
1100 PM CDT THU AUG 27 2015

NOTE: "FAIR" INDICATES FEW OR NO CLOUDS BELOW 12,000 FEET WITH NO
SIGNIFICANT WEATHER AND/OR OBSTRUCTIONS TO VISIBILITY.

* - THESE STATIONS ARE NOT NWS STATIONS...THUS NOT UNDER NWS
QUALITY CONTROL.  THEY ALSO DO NOT REPORT WEATHER SUCH
AS PRECIPITATION OR FOG.

IAZ001>003-012>014-020>022-031>034-043>046-280500-
   NORTHWEST IOWA

CITY           SKY/WX    TMP DP  RH WIND       PRES   REMARKS
CARROLL *      CLOUDY    64  64 100 SE9       30.03R
CHEROKEE *     CLOUDY    64  64 100 E14       29.98F
DENISON *      CLEAR     66  64  94 E10       29.97F
LE MARS *      CLOUDY    68  64  88 E13G20    29.97R
ORANGE CITY *  RAIN      64  64 100 E6        30.00R
SIOUX CITY     CLOUDY    68  63  84 E16G24    29.93S
SPENCER        RAIN      64  61  90 SE17      30.03R FOG
STORM LAKE *   LGT RAIN  63  63 100 E15G21    30.02F
$$

IAZ055>058-069>071-079>083-090>094-280500-
   SOUTHWEST IOWA

CITY           SKY/WX    TMP DP  RH WIND       PRES   REMARKS
ATLANTIC *     CLEAR     68  63  83 SE12      29.97F
AUDUBON *      PTCLDY    64  61  88 E3        30.03R
CLARINDA *     CLEAR     68  64  88 SE10      29.97F
COUNCIL BLFS *   N/A     68  66  94 SE13G18   29.94F
CRESTON *      CLEAR     64  61  88 S8        30.04R
HARLAN  *      CLEAR     68  68 100 E5        30.01F
LAMONI         PTCLDY    66  61  84 SE9       30.03R
RED OAK *        N/A     68  64  88 SE8       29.96F
SHENANDOAH *   CLEAR     70  66  88 VRB5      29.96R
$$

IAZ047>049-059>061-072>074-084-280500-
   CENTRAL IOWA

CITY           SKY/WX    TMP DP  RH WIND       PRES   REMARKS
AMES           MOCLDY    64  61  90 SE8       30.02F
ANKENY *       PTCLDY    66  63  88 SE12      30.03S
CHARITON *     CLOUDY    64  61  88 SE7       30.04S
DES MOINES     MOCLDY    69  60  73 SE14G21   30.03R
GRINNELL*      PTCLDY    63  59  88 SE8       30.06F
KNOXVILLE *    MOCLDY    64  61  88 SE8       30.03S
MARSHALLTOWN   MOCLDY    63  60  90 SE9       30.05R
PELLA *        PTCLDY    64  63  94 SE9       30.06F
PERRY *        CLOUDY    64  63  94 SE6       30.02R
$$

IAZ004>006-015-016-023>025-035-036-280500-
   NORTH CENTRAL IOWA

CITY           SKY/WX    TMP DP  RH WIND       PRES   REMARKS
ALGONA *       DRIZZLE   64  63  94 SE9       30.03F
CLARION *      MOCLDY    64  61  88 SE9       30.04F
ESTHERVILLE    LGT RAIN  63  61  93 S12       30.04R
FORT DODGE *   CLOUDY    63  59  88 E6        30.04S
MASON CITY     CLOUDY    64  61  90 S13       30.06F
FOREST CITY *  PTCLDY    63  61  94 SE6       30.04F
IOWA FALLS *     N/A     64  61  88 SE6       30.06F
$$

IAZ007>011-017>019-026>030-037>042-050>054-066-280500-
   NORTHEAST IOWA

CITY           SKY/WX    TMP DP  RH WIND       PRES   REMARKS
CEDAR RAPIDS   CLEAR     60  60 100 E6        30.08S
CHARLES CITY * CLOUDY    64  63  94 SE6G13    30.06F
CLINTON *      MOCLDY    63  57  82 SE7       30.13R
DECORAH *      MOCLDY    64  61  88 SE8       30.06S
DUBUQUE        MOCLDY    63  59  87 SE6       30.11S
MONTICELLO *   CLEAR     63  59  88 SE5       30.09S
OELWEIN *      CLOUDY    61  59  94 SE7       30.09S
WATERLOO       PTCLDY    63  59  87 SE9       30.07R
$$

IAZ064-065-067-068-078-280500-
   EAST CENTRAL IOWA

CITY           SKY/WX    TMP DP  RH WIND       PRES   REMARKS
DAVENPORT      MOCLDY    62  59  90 SE6       30.10R
IOWA CITY      CLEAR     63  58  83 SE5       30.09R
MT. PLEASANT * CLEAR     64  59  82 SE3       30.08S
MUSCATINE *    CLEAR     59  57  94 N3        30.09R
QUAD CITIES    PTCLDY    62  58  86 E3        30.10R
$$

IAZ062-063-075>077-085>089-095>099-280500-
   SOUTHEAST IOWA

CITY           SKY/WX    TMP DP  RH WIND       PRES   REMARKS
BURLINGTON     CLEAR     64  59  83 SE7       30.07F
FAIRFIELD *    CLEAR     63  57  82 SE5       30.08R
FORT MADISON * CLEAR     61  59  94 CALM      30.09S
KEOKUK *       CLEAR     64  59  82 SE6       30.07S
OSKALOOSA *      N/A     61  59  94 SE7       30.07S
CENTERVILLE *  CLEAR     63  59  88 SE7       30.07S
OTTUMWA        PTCLDY    62  60  93 SE9       30.05S
WASHINGTON *     N/A    N/A N/A N/A MISG        N/A
$$

ABBREVIATIONS USED IN REMARKS
   TC - TEMPERATURES IN CELSIUS
  WCI - WIND CHILL INDEX
   HX - HEAT INDEX
  VSB - VISIBILITY
$$




USA.gov is the U.S. government's official web portal to all federal, state and local government web resources and services.